This demonstration page uses our WeatherBlox Daily Observations layout. Learn more.

Left ArrowRight Arrow

31.84235, -102.49876

Hourly Observations for March 7, 2018

Temp ( °F °C ) Dew Point ( °F °C ) Humidity (%) Winds ( mph kmh ) Pressure ( in mb ) Visibility ( mi km ) Precip ( " mm )
12:53 am 00:53 Clear 43 6.1 5 -15 21 21 ESE 8 13 30.20 1023 10 16 0.00 0.00
1:53 am 01:53 Clear 39 3.9 5 -15 24 24 ESE 7 11 30.22 1023 10 16 0.00 0.00
2:53 am 02:53 Clear 34 1.1 5 -15 29 29 E 8 13 30.24 1024 10 16 0.00 0.00
3:53 am 03:53 Clear 35 1.7 5 -15 28 28 ENE 10 17 30.23 1024 10 16 0.00 0.00
4:53 am 04:53 Clear 32 0 5 -15 32 32 ENE 9 15 30.25 1024 10 16 0.00 0.00
5:53 am 05:53 Clear 30 -1.1 4 -15.6 33 33 E 9 15 30.26 1025 10 16 0.00 0.00
6:53 am 06:53 Clear 36 2.2 6 -14.4 28 28 E 9 15 30.28 1026 10 16 0.00 0.00
7:53 am 07:53 Sunny 36 2.2 6 -14.4 28 28 E 7 11 30.31 1026 10 16 0.00 0.00
8:53 am 08:53 Sunny 43 6.1 7 -13.9 22 22 E 12 19 30.32 1027 10 16 0.00 0.00
9:53 am 09:53 Sunny 47 8.3 5 -15 18 18 SE 15 24 30.32 1027 10 16 0.00 0.00
10:53 am 10:53 Sunny 51 10.6 5 -15 15 15 SE 14 22 30.28 1025 10 16 0.00 0.00
11:53 am 11:53 Sunny 54 12.2 3 -16.1 12 12 SE 8 13 30.26 1025 10 16 0.00 0.00
12:53 pm 12:53 Sunny 57 13.9 6 -14.4 13 13 S 15 24 30.22 1023 10 16 0.00 0.00
1:53 pm 13:53 Sunny 59 15 7 -13.9 12 12 S 13 20 30.17 1022 10 16 0.00 0.00
2:53 pm 14:53 Sunny 63 17.2 9 -12.8 12 12 S 14 22 30.13 1020 10 16 0.00 0.00
3:53 pm 15:53 Sunny 63 17.2 11 -11.7 13 13 SSE 10 17 30.10 1019 10 16 0.00 0.00
4:53 pm 16:53 Sunny 65 18.3 12 -11.1 13 13 S 14 22 30.09 1019 10 16 0.00 0.00
5:53 pm 17:53 Sunny 64 17.8 13 -10.6 13 13 SSE 12 19 30.09 1019 10 16 0.00 0.00
6:53 pm 18:53 Clear 61 16.1 14 -10 16 16 SSE 8 13 30.09 1019 10 16 0.00 0.00
7:53 pm 19:53 Clear 59 15 15 -9.4 18 18 SSE 8 13 30.11 1020 10 16 0.00 0.00
8:53 pm 20:53 Clear 59 15 15 -9.4 18 18 S 10 17 30.11 1020 10 16 0.00 0.00
9:53 pm 21:53 Clear 57 13.9 17 -8.3 21 21 S 12 19 30.11 1020 10 16 0.00 0.00
10:53 pm 22:53 Clear 55 12.8 17 -8.3 22 22 SSE 10 17 30.12 1020 10 16 0.00 0.00
11:53 pm 23:53 Clear 54 12.2 17 -8.3 23 23 SSE 8 13 30.11 1020 10 16 0.00 0.00

Powered by AerisWeather